�N����,����,�~����,�C��,���x,�C��,����,���ϕ���,�ő�u�ԕ���,�ő厞����,���˗�,�I�_���x,�n�����x,�ő啗���N��,DTYPE
"16/12/08","00:10",0.0,2.9,98.0,1010.2,295.6,0.7,1.8,305.1,0.00,2.7,8.8,"00:02:32",1
"16/12/08","00:20",0.0,3.1,98.0,1010.2,307.9,1.2,2.4,313.9,0.00,2.9,8.7,"00:15:12",1
"16/12/08","00:30",0.0,2.8,97.6,1010.4,304.0,2.3,4.4,324.3,0.00,2.5,8.7,"00:20:02",1
"16/12/08","00:40",0.0,2.2,98.8,1010.2,298.9,2.1,3.7,321.1,0.00,2.1,8.4,"00:30:08",1
"16/12/08","00:50",0.0,2.3,98.0,1010.0,307.6,2.3,3.7,309.9,0.00,2.1,8.6,"00:44:24",1
"16/12/08","01:00",0.0,2.4,98.1,1010.2,312.0,2.6,3.3,315.6,0.00,2.2,8.7,"00:54:48",1
"16/12/08","01:10",0.0,2.3,98.2,1010.0,287.1,1.8,2.9,311.9,0.00,2.1,8.5,"01:06:56",1
"16/12/08","01:20",0.0,2.6,98.5,1010.4,295.5,1.8,2.4,326.8,0.00,2.4,8.4,"01:19:28",1
"16/12/08","01:30",0.0,2.9,98.3,1010.2,299.1,1.7,2.4,320.7,0.00,2.7,8.5,"01:20:32",1
"16/12/08","01:40",0.0,2.9,98.2,1010.0,296.8,1.6,2.9,318.5,0.00,2.7,8.6,"01:35:04",1
"16/12/08","01:50",0.0,2.8,98.2,1010.4,291.4,1.6,2.8,320.3,0.00,2.6,8.3,"01:44:00",1
"16/12/08","02:00",0.0,2.9,97.9,1010.2,292.4,1.3,2.1,305.3,0.00,2.6,8.7,"01:54:40",1
"16/12/08","02:10",0.0,2.6,99.1,1010.4,299.4,2.0,3.3,318.5,0.00,2.5,8.6,"02:03:12",1
"16/12/08","02:20",0.0,2.7,98.5,1010.4,294.4,1.7,2.8,319.4,0.00,2.5,8.5,"02:10:02",1
"16/12/08","02:30",0.0,3.2,98.5,1010.9,304.7,1.7,3.3,323.1,0.00,3.0,8.3,"02:27:04",1
"16/12/08","02:40",0.0,3.3,98.2,1010.9,297.0,1.6,3.6,348.4,0.00,3.1,8.2,"02:39:04",1
"16/12/08","02:50",0.0,3.3,97.9,1010.9,308.4,2.3,3.1,340.9,0.00,3.0,8.2,"02:40:08",1
"16/12/08","03:00",0.0,2.7,98.8,1010.7,289.6,1.5,2.9,310.7,0.00,2.6,8.4,"02:57:36",1
"16/12/08","03:10",0.0,3.5,98.3,1011.2,300.5,2.5,4.0,321.8,0.00,3.3,8.3,"03:06:00",1
"16/12/08","03:20",0.0,3.6,97.5,1011.2,292.8,1.3,1.9,317.5,0.00,3.3,8.2,"03:11:28",1
"16/12/08","03:30",0.0,3.5,98.7,1011.4,317.5,2.2,2.9,322.3,0.00,3.4,8.3,"03:24:00",1
"16/12/08","03:40",0.0,4.0,97.4,1011.2,317.7,1.2,2.2,327.0,0.00,3.7,8.5,"03:30:32",1
"16/12/08","03:50",0.0,4.0,98.3,1011.2,302.4,1.7,2.6,338.6,0.00,3.8,8.3,"03:43:04",1
"16/12/08","04:00",0.0,4.5,96.5,1011.4,292.6,1.2,2.5,322.0,0.00,4.0,8.2,"03:50:24",1
"16/12/08","04:10",0.0,4.2,97.4,1011.2,279.9,1.0,1.8,254.6,0.00,3.9,8.3,"04:01:28",1
"16/12/08","04:20",0.0,4.3,97.4,1011.2,353.1,0.6,1.8,314.6,0.00,4.0,8.4,"04:16:16",1
"16/12/08","04:30",0.0,4.0,96.7,1011.2,309.5,1.6,2.9,324.3,0.00,3.6,8.5,"04:29:20",1
"16/12/08","04:40",0.0,3.6,96.8,1011.2,265.0,0.8,2.2,333.8,0.00,3.2,8.3,"04:30:24",1
"16/12/08","04:50",0.0,3.7,97.7,1011.4,313.1,2.3,3.1,312.8,0.00,3.4,8.3,"04:42:16",1
"16/12/08","05:00",0.0,3.9,97.8,1011.4,310.5,1.0,2.2,313.5,0.00,3.6,8.2,"04:50:16",1
"16/12/08","05:10",0.0,3.9,97.9,1012.1,284.2,0.8,1.7,249.5,0.00,3.6,8.3,"05:00:02",1
"16/12/08","05:20",0.0,4.2,98.4,1012.3,305.0,2.0,3.4,323.2,0.00,4.0,8.2,"05:17:28",1
"16/12/08","05:30",0.0,4.8,96.4,1011.9,326.1,0.8,2.0,311.6,0.00,4.3,8.2,"05:20:56",1
"16/12/08","05:40",0.0,4.3,96.5,1012.1,281.3,1.5,2.7,325.9,0.00,3.8,8.3,"05:39:28",1
"16/12/08","05:50",0.0,4.1,96.5,1012.1,325.5,2.2,2.9,324.3,0.00,3.6,8.3,"05:48:16",1
"16/12/08","06:00",0.0,3.9,97.1,1012.3,330.0,1.7,3.3,322.5,0.00,3.5,8.2,"05:51:36",1
"16/12/08","06:10",0.0,4.0,97.5,1012.3,300.6,1.3,2.1,306.6,0.00,3.7,8.2,"06:00:02",1
"16/12/08","06:20",0.0,4.1,97.7,1012.8,290.5,1.2,2.4,315.2,0.00,3.8,8.3,"06:10:56",1
"16/12/08","06:30",0.0,4.1,97.8,1013.0,271.6,1.0,2.0,294.7,0.00,3.8,8.3,"06:20:48",1
"16/12/08","06:40",0.0,4.5,98.4,1012.8,245.0,1.0,2.1,198.9,0.00,4.3,8.2,"06:35:04",1
"16/12/08","06:50",0.0,4.7,96.4,1012.8,316.4,2.0,3.3,316.6,0.00,4.2,8.3,"06:44:32",1
"16/12/08","07:00",0.0,4.3,97.0,1012.8,311.0,1.8,2.7,353.9,0.00,3.9,8.2,"06:51:04",1
"16/12/08","07:10",0.0,4.0,97.4,1012.8,308.2,2.0,3.2,318.9,0.00,3.7,8.5,"07:09:04",1
"16/12/08","07:20",0.0,3.8,97.5,1012.8,303.8,1.6,2.8,320.8,0.00,3.5,8.5,"07:14:00",1
"16/12/08","07:30",0.0,3.7,97.8,1013.3,355.2,1.0,2.2,308.2,0.00,3.4,8.2,"07:27:28",1
"16/12/08","07:40",0.0,3.9,98.5,1013.3,307.9,1.6,2.7,321.9,0.00,3.7,8.4,"07:36:16",1
"16/12/08","07:50",0.0,4.5,96.8,1013.0,311.5,2.1,3.2,324.6,0.00,4.1,8.1,"07:45:04",1
"16/12/08","08:00",0.0,5.2,97.1,1013.3,288.8,1.7,2.2,307.5,0.01,4.8,8.1,"07:50:24",1
"16/12/08","08:10",0.0,5.9,93.9,1013.5,272.1,1.5,2.8,264.7,0.02,5.0,8.3,"08:05:36",1
"16/12/08","08:20",0.0,6.6,91.6,1013.5,294.6,1.3,2.0,311.4,0.03,5.4,8.3,"08:17:52",1
"16/12/08","08:30",0.0,7.2,90.0,1014.0,328.2,1.3,2.1,342.2,0.05,5.7,8.3,"08:22:16",1
"16/12/08","08:40",0.0,7.7,87.6,1014.2,291.9,1.3,2.2,311.3,0.07,5.8,8.5,"08:30:02",1
"16/12/08","08:50",0.0,7.4,86.8,1014.7,276.4,1.2,2.1,252.7,0.04,5.4,8.4,"08:42:56",1
"16/12/08","09:00",0.0,7.5,87.4,1014.7,210.6,0.2,0.8,82.6,0.09,5.6,8.5,"08:57:28",1
"16/12/08","09:10",0.0,8.1,85.2,1014.9,336.9,0.6,1.4,335.1,0.11,5.8,8.6,"09:04:40",1
"16/12/08","09:20",0.0,8.9,84.0,1015.2,251.6,0.8,1.6,233.9,0.18,6.4,8.6,"09:10:40",1
"16/12/08","09:30",0.0,9.4,82.0,1015.2,245.4,1.1,2.0,244.2,0.23,6.5,8.8,"09:21:12",1
"16/12/08","09:40",0.0,9.7,78.7,1015.6,263.7,1.3,3.1,315.8,0.25,6.2,8.7,"09:38:56",1
"16/12/08","09:50",0.0,10.2,77.5,1015.9,285.6,1.1,2.1,312.7,0.25,6.5,9.1,"09:42:48",1
"16/12/08","10:00",0.0,10.4,75.2,1015.6,290.6,1.6,3.3,324.4,0.28,6.2,9.2,"09:53:44",1
"16/12/08","10:10",0.0,10.5,73.3,1015.4,288.8,1.0,2.6,332.1,0.29,6.0,9.6,"10:02:00",1
"16/12/08","10:20",0.0,10.0,74.8,1015.6,248.7,0.7,1.4,247.7,0.14,5.8,9.6,"10:10:08",1
"16/12/08","10:30",0.0,10.7,74.9,1015.4,241.8,0.7,1.6,79.6,0.28,6.5,9.7,"10:26:16",1
"16/12/08","10:40",0.0,11.2,72.2,1015.2,255.4,0.8,2.1,305.8,0.35,6.4,10.0,"10:38:56",1
"16/12/08","10:50",0.0,11.0,71.5,1014.9,88.2,0.7,1.9,104.8,0.37,6.1,10.2,"10:45:36",1
"16/12/08","11:00",0.0,11.1,70.9,1014.9,205.0,0.8,2.2,196.0,0.38,6.1,10.4,"10:57:52",1
"16/12/08","11:10",0.0,11.7,71.2,1014.7,174.4,1.1,2.6,103.8,0.34,6.7,10.4,"11:03:44",1
"16/12/08","11:20",0.0,11.3,69.0,1014.5,201.7,1.1,2.2,112.9,0.40,5.9,10.4,"11:16:00",1
"16/12/08","11:30",0.0,11.7,69.1,1014.0,145.5,1.0,2.2,118.2,0.42,6.3,10.8,"11:25:28",1
"16/12/08","11:40",0.0,12.3,66.8,1014.0,228.1,1.5,2.9,234.7,0.44,6.4,11.0,"11:31:28",1
"16/12/08","11:50",0.0,12.1,65.9,1013.8,147.3,1.1,2.8,145.5,0.40,6.0,11.1,"11:48:40",1
"16/12/08","12:00",0.0,11.5,67.2,1013.3,198.3,0.8,1.6,163.0,0.19,5.7,11.2,"11:51:36",1
"16/12/08","12:10",0.0,11.4,69.0,1013.5,217.7,1.1,2.9,219.2,0.12,6.0,11.3,"12:00:16",1
"16/12/08","12:20",0.0,11.4,67.3,1013.3,219.1,0.8,2.2,236.9,0.07,5.6,11.5,"12:10:32",1
"16/12/08","12:30",0.0,11.4,68.1,1013.0,284.9,0.6,1.3,316.9,0.05,5.8,11.4,"12:25:52",1
"16/12/08","12:40",0.0,11.5,67.2,1012.8,50.3,0.7,1.4,105.0,0.10,5.7,11.5,"12:39:12",1
"16/12/08","12:50",0.0,11.5,66.9,1012.6,88.6,0.5,1.3,202.4,0.16,5.6,11.6,"12:49:52",1
"16/12/08","13:00",0.0,11.8,64.5,1012.3,53.9,0.6,1.8,115.0,0.26,5.4,11.6,"12:55:04",1
"16/12/08","13:10",0.0,12.0,64.9,1013.0,297.0,1.0,2.2,44.7,0.21,5.6,11.7,"13:01:20",1
"16/12/08","13:20",0.0,11.9,64.1,1012.1,244.8,1.3,2.7,232.0,0.25,5.4,11.6,"13:11:36",1
"16/12/08","13:30",0.0,13.0,61.3,1012.1,223.3,1.3,3.4,237.7,0.39,5.8,11.8,"13:29:52",1
"16/12/08","13:40",0.0,12.6,60.2,1012.1,209.3,1.2,3.6,235.2,0.35,5.1,11.9,"13:31:52",1
"16/12/08","13:50",0.0,12.8,60.6,1012.1,253.2,1.0,2.9,229.3,0.29,5.4,12.1,"13:46:24",1
"16/12/08","14:00",0.0,13.0,59.2,1011.9,246.6,1.5,2.9,230.6,0.28,5.3,12.1,"13:59:28",1
"16/12/08","14:10",0.0,13.1,60.2,1011.9,238.1,1.2,2.4,227.8,0.28,5.6,12.3,"14:02:56",1
"16/12/08","14:20",0.0,12.8,61.5,1011.9,233.2,1.1,2.6,148.4,0.20,5.6,12.3,"14:18:24",1
"16/12/08","14:30",0.0,12.5,60.8,1012.3,233.4,0.7,1.8,205.5,0.13,5.2,12.3,"14:20:48",1
"16/12/08","14:40",0.0,12.5,61.1,1012.1,203.2,0.6,1.8,221.8,0.10,5.3,12.3,"14:30:24",1
"16/12/08","14:50",0.0,12.7,59.6,1011.9,301.2,0.5,1.1,19.4,0.13,5.1,12.3,"14:40:24",1
"16/12/08","15:00",0.0,12.8,59.8,1011.9,269.5,0.6,1.3,298.0,0.08,5.2,12.2,"14:53:44",1
"16/12/08","15:10",0.0,12.5,61.5,1011.9,232.9,0.6,1.3,168.6,0.06,5.3,12.3,"15:04:40",1
"16/12/08","15:20",0.0,12.1,61.3,1011.6,239.6,1.3,3.1,233.2,0.04,4.9,12.4,"15:16:00",1
"16/12/08","15:30",0.0,11.9,63.5,1011.6,236.6,1.6,3.6,239.1,0.03,5.2,12.3,"15:21:04",1
"16/12/08","15:40",0.0,11.7,63.6,1011.6,235.9,2.0,3.9,234.1,0.02,5.1,12.2,"15:30:16",1
"16/12/08","15:50",0.0,11.6,64.0,1011.6,249.0,1.3,2.5,241.0,0.00,5.1,12.3,"15:41:04",1
"16/12/08","16:00",0.0,11.5,65.1,1012.1,261.1,1.1,2.6,236.9,0.00,5.2,12.2,"15:51:04",1
"16/12/08","16:10",0.0,11.4,65.2,1011.9,270.0,1.1,1.6,282.5,0.00,5.1,12.0,"16:04:00",1
"16/12/08","16:20",0.0,11.3,66.6,1011.9,280.6,0.7,1.3,258.7,0.00,5.4,12.0,"16:10:08",1
"16/12/08","16:30",0.0,11.1,66.2,1011.9,265.1,0.6,1.3,239.0,0.00,5.1,12.0,"16:23:52",1
"16/12/08","16:40",0.0,11.1,70.3,1012.1,314.4,1.3,2.2,320.8,0.00,5.9,11.9,"16:37:04",1
"16/12/08","16:50",0.0,10.7,71.4,1011.9,321.4,1.5,2.1,317.3,0.00,5.8,12.0,"16:45:04",1
"16/12/08","17:00",0.0,10.6,73.1,1011.9,317.4,1.5,2.0,330.0,0.00,6.0,12.1,"16:59:36",1
"16/12/08","17:10",0.0,10.1,74.5,1011.6,307.9,1.3,2.1,316.9,0.00,5.8,11.8,"17:00:56",1
"16/12/08","17:20",0.0,9.7,76.4,1011.9,293.6,1.3,1.7,320.1,0.00,5.8,11.7,"17:11:34",1
"16/12/08","17:30",0.0,9.4,78.3,1011.9,287.0,1.6,2.0,278.9,0.00,5.9,11.6,"17:26:22",1
"16/12/08","17:40",0.0,9.0,80.1,1011.9,286.8,1.6,1.7,296.7,0.00,5.8,11.5,"17:35:18",1
"16/12/08","17:50",0.0,8.6,81.6,1012.1,300.2,1.5,1.9,265.2,0.00,5.7,11.6,"17:41:44",1
"16/12/08","18:00",0.0,8.0,83.2,1012.1,313.2,1.8,2.4,322.4,0.00,5.4,11.4,"17:54:08",1
"16/12/08","18:10",0.0,7.4,85.1,1011.9,295.3,1.5,1.9,309.8,0.00,5.1,11.3,"18:03:28",1
"16/12/08","18:20",0.0,7.0,87.4,1012.3,297.8,2.0,2.5,306.3,0.00,5.1,11.2,"18:13:04",1
"16/12/08","18:30",0.0,6.9,88.5,1012.3,292.9,2.0,2.5,305.7,0.00,5.2,11.0,"18:26:40",1
"16/12/08","18:40",0.0,7.0,88.5,1012.1,297.0,2.2,2.7,317.2,0.00,5.3,11.0,"18:32:32",1
"16/12/08","18:50",0.0,6.9,88.2,1012.6,286.1,1.5,3.2,306.7,0.00,5.1,10.8,"18:40:16",1
"16/12/08","19:00",0.0,6.6,89.0,1012.6,291.1,1.7,2.1,290.8,0.00,5.0,10.6,"18:55:12",1
"16/12/08","19:10",0.0,6.5,89.0,1012.3,309.9,2.2,2.8,315.6,0.00,4.9,10.5,"19:09:20",1
"16/12/08","19:20",0.0,6.2,89.6,1012.6,309.9,2.1,2.7,320.1,0.00,4.7,10.7,"19:10:16",1
"16/12/08","19:30",0.0,5.8,90.6,1012.6,295.8,1.7,2.6,319.8,0.00,4.4,10.5,"19:20:08",1
"16/12/08","19:40",0.0,5.6,91.3,1012.1,286.8,1.3,1.8,309.6,0.00,4.3,10.2,"19:39:28",1
"16/12/08","19:50",0.0,5.2,91.9,1012.6,305.3,1.8,2.4,322.3,0.00,4.0,10.2,"19:45:28",1
"16/12/08","20:00",0.0,4.7,92.7,1012.1,308.5,2.1,2.8,318.9,0.00,3.7,10.2,"19:51:28",1
"16/12/08","20:10",0.0,4.5,94.0,1011.9,303.0,1.5,2.0,317.0,0.00,3.7,10.1,"20:06:24",1
"16/12/08","20:20",0.0,4.5,94.9,1012.1,294.9,1.5,2.5,315.8,0.00,3.8,10.1,"20:16:56",1
"16/12/08","20:30",0.0,4.4,95.4,1011.9,306.1,1.5,2.4,312.9,0.00,3.8,10.0,"20:28:16",1
"16/12/08","20:40",0.0,4.3,95.7,1011.4,303.4,1.6,2.1,317.1,0.00,3.7,9.7,"20:31:12",1
"16/12/08","20:50",0.0,4.1,95.9,1011.6,301.0,1.5,1.8,308.6,0.00,3.5,9.8,"20:42:16",1
"16/12/08","21:00",0.0,4.0,96.0,1011.6,306.5,1.6,2.6,317.1,0.00,3.5,9.7,"20:53:28",1
"16/12/08","21:10",0.0,3.8,96.4,1011.6,310.5,2.1,2.5,314.5,0.00,3.3,9.8,"21:03:52",1
"16/12/08","21:20",0.0,3.5,96.4,1011.6,300.9,1.5,2.0,319.4,0.00,3.0,9.5,"21:10:40",1
"16/12/08","21:30",0.0,3.2,97.2,1011.4,302.8,1.7,2.7,316.0,0.00,2.8,9.5,"21:20:02",1
"16/12/08","21:40",0.0,3.3,97.6,1011.2,303.2,1.6,2.7,314.4,0.00,3.0,9.4,"21:30:16",1
"16/12/08","21:50",0.0,3.3,98.1,1010.9,304.1,1.8,2.5,310.6,0.00,3.1,9.4,"21:48:32",1
"16/12/08","22:00",0.0,3.6,97.0,1010.9,307.1,1.7,2.6,322.5,0.00,3.2,9.2,"21:52:00",1
"16/12/08","22:10",0.0,3.4,98.1,1010.7,306.0,1.7,2.1,311.4,0.00,3.2,9.2,"22:02:48",1
"16/12/08","22:20",0.0,3.8,97.5,1010.7,304.2,1.7,2.4,310.2,0.00,3.5,9.1,"22:15:28",1
"16/12/08","22:30",0.0,3.8,98.6,1010.9,303.4,1.7,2.1,316.0,0.00,3.6,9.2,"22:27:52",1
"16/12/08","22:40",0.0,4.1,97.5,1010.9,302.6,1.6,1.9,309.3,0.00,3.8,9.2,"22:30:16",1
"16/12/08","22:50",0.0,3.8,98.3,1010.7,307.2,1.6,2.0,312.7,0.00,3.6,9.2,"22:43:20",1
"16/12/08","23:00",0.0,4.1,97.5,1010.7,293.2,1.3,1.9,311.5,0.00,3.8,9.2,"22:53:52",1
"16/12/08","23:10",0.0,4.0,98.6,1010.9,288.8,1.5,1.9,274.5,0.00,3.8,9.0,"23:06:40",1
"16/12/08","23:20",0.0,4.3,97.5,1010.7,298.3,1.7,2.6,299.3,0.00,4.0,9.0,"23:10:02",1
"16/12/08","23:30",0.0,4.1,98.0,1011.2,311.3,1.8,3.1,298.4,0.00,3.9,9.3,"23:20:08",1
"16/12/08","23:40",0.0,4.2,97.1,1010.4,293.9,1.3,2.0,309.1,0.00,3.8,9.1,"23:39:20",1
"16/12/08","23:50",0.0,4.4,98.0,1010.9,287.4,1.6,2.1,310.9,0.00,4.2,8.9,"23:45:20",1
"16/12/08","24:00",0.0,4.9,96.5,1010.9,284.7,1.5,1.9,282.2,0.00,4.4,9.1,"23:58:16",1
